Time,TemperatureF,DewpointF,PressureIn,WindDirection,WindDirectionDegrees,WindSpeedMPH,WindSpeedGustMPH,Humidity,HourlyPrecipIn,Conditions,Clouds,dailyrainin,SoftwareType,DateUTC
2013-09-04 00:04:00,57.0,50.5,29.89,NW,317,0.0,0.0,79,0.00,,,0.00,Wunderground v.1.15,2013-09-04 07:04:00,
2013-09-04 00:10:00,56.7,50.3,29.89,NW,317,0.0,0.0,79,0.00,,,0.00,Wunderground v.1.15,2013-09-04 07:10:00,
2013-09-04 00:16:00,56.2,50.1,29.88,NW,317,0.0,0.0,80,0.00,,,0.00,Wunderground v.1.15,2013-09-04 07:16:00,
2013-09-04 00:22:00,55.9,50.2,29.88,NW,317,0.0,0.0,81,0.00,,,0.00,Wunderground v.1.15,2013-09-04 07:22:00,
2013-09-04 00:28:00,55.6,49.9,29.89,NW,317,0.0,0.0,81,0.00,,,0.00,Wunderground v.1.15,2013-09-04 07:28:00,
2013-09-04 00:34:00,55.1,49.7,29.88,NW,317,0.0,0.0,82,0.00,,,0.00,Wunderground v.1.15,2013-09-04 07:34:00,
2013-09-04 00:40:00,54.8,49.4,29.88,NW,317,0.0,1.0,82,0.00,,,0.00,Wunderground v.1.15,2013-09-04 07:40:00,
2013-09-04 00:46:00,54.2,49.1,29.88,NW,317,0.0,1.0,83,0.00,,,0.00,Wunderground v.1.15,2013-09-04 07:46:00,
2013-09-04 00:52:00,53.9,48.9,29.88,NW,317,0.0,1.0,83,0.00,,,0.00,Wunderground v.1.15,2013-09-04 07:52:00,
2013-09-04 00:58:00,53.6,48.9,29.88,NW,317,0.0,1.0,84,0.00,,,0.00,Wunderground v.1.15,2013-09-04 07:58:00,
2013-09-04 01:04:00,53.5,48.8,29.88,NW,317,0.0,1.0,84,0.00,,,0.00,Wunderground v.1.15,2013-09-04 08:04:00,
2013-09-04 01:10:00,53.2,48.5,29.88,NW,317,0.0,1.0,84,0.00,,,0.00,Wunderground v.1.15,2013-09-04 08:10:00,
2013-09-04 01:16:00,53.0,48.3,29.88,NW,317,0.0,2.0,84,0.00,,,0.00,Wunderground v.1.15,2013-09-04 08:16:00,
2013-09-04 01:22:00,52.7,48.3,29.89,NW,317,1.0,2.0,85,0.00,,,0.00,Wunderground v.1.15,2013-09-04 08:22:00,
2013-09-04 01:28:00,52.6,47.9,29.89,NW,317,1.0,2.0,84,0.00,,,0.00,Wunderground v.1.15,2013-09-04 08:28:00,
2013-09-04 01:34:00,52.4,47.4,29.89,NW,317,1.0,1.0,83,0.00,,,0.00,Wunderground v.1.15,2013-09-04 08:34:00,
2013-09-04 01:40:00,52.4,47.4,29.89,NW,317,0.0,1.0,83,0.00,,,0.00,Wunderground v.1.15,2013-09-04 08:40:00,
2013-09-04 01:46:00,52.2,47.2,29.89,NW,317,1.0,1.0,83,0.00,,,0.00,Wunderground v.1.15,2013-09-04 08:46:00,
2013-09-04 01:52:00,52.1,47.4,29.89,NW,317,0.0,0.0,84,0.00,,,0.00,Wunderground v.1.15,2013-09-04 08:52:00,
2013-09-04 01:58:00,51.9,47.2,29.89,NW,317,0.0,0.0,84,0.00,,,0.00,Wunderground v.1.15,2013-09-04 08:58:00,
2013-09-04 02:04:00,51.7,47.0,29.89,NW,317,0.0,1.0,84,0.00,,,0.00,Wunderground v.1.15,2013-09-04 09:04:00,
2013-09-04 02:10:00,51.4,47.0,29.89,NW,317,0.0,1.0,85,0.00,,,0.00,Wunderground v.1.15,2013-09-04 09:10:00,
2013-09-04 02:16:00,51.2,46.8,29.89,NW,317,0.0,0.0,85,0.00,,,0.00,Wunderground v.1.15,2013-09-04 09:16:00,
2013-09-04 02:22:00,50.9,46.6,29.89,NW,317,0.0,0.0,85,0.00,,,0.00,Wunderground v.1.15,2013-09-04 09:22:00,
2013-09-04 02:28:00,50.9,46.6,29.89,NW,317,0.0,0.0,85,0.00,,,0.00,Wunderground v.1.15,2013-09-04 09:28:00,
2013-09-04 02:34:00,50.8,46.8,29.88,NW,317,0.0,0.0,86,0.00,,,0.00,Wunderground v.1.15,2013-09-04 09:34:00,
2013-09-04 02:40:00,50.8,46.5,29.89,NW,317,0.0,0.0,85,0.00,,,0.00,Wunderground v.1.15,2013-09-04 09:40:00,
2013-09-04 02:46:00,50.5,46.2,29.89,NW,317,0.0,0.0,85,0.00,,,0.00,Wunderground v.1.15,2013-09-04 09:46:00,
2013-09-04 02:52:00,50.3,46.0,29.89,NW,317,0.0,0.0,85,0.00,,,0.00,Wunderground v.1.15,2013-09-04 09:52:00,
2013-09-04 02:58:00,50.1,46.1,29.89,NW,317,0.0,0.0,86,0.00,,,0.00,Wunderground v.1.15,2013-09-04 09:58:00,
2013-09-04 03:04:00,49.8,46.1,29.89,NW,317,0.0,0.0,87,0.00,,,0.00,Wunderground v.1.15,2013-09-04 10:04:00,
2013-09-04 03:10:00,49.7,46.0,29.89,NW,317,0.0,0.0,87,0.00,,,0.00,Wunderground v.1.15,2013-09-04 10:10:00,
2013-09-04 03:16:00,49.7,46.0,29.89,NW,317,0.0,2.0,87,0.00,,,0.00,Wunderground v.1.15,2013-09-04 10:16:00,
2013-09-04 03:22:00,49.7,45.7,29.89,NW,317,1.0,2.0,86,0.00,,,0.00,Wunderground v.1.15,2013-09-04 10:22:00,
2013-09-04 03:28:00,49.6,45.6,29.89,NW,317,1.0,2.0,86,0.00,,,0.00,Wunderground v.1.15,2013-09-04 10:28:00,
2013-09-04 03:34:00,49.5,45.8,29.89,NW,317,0.0,1.0,87,0.00,,,0.00,Wunderground v.1.15,2013-09-04 10:34:00,
2013-09-04 03:40:00,49.5,45.5,29.89,NW,317,0.0,0.0,86,0.00,,,0.00,Wunderground v.1.15,2013-09-04 10:40:00,
2013-09-04 03:46:00,49.5,45.8,29.89,NW,317,0.0,0.0,87,0.00,,,0.00,Wunderground v.1.15,2013-09-04 10:46:00,
2013-09-04 03:52:00,49.6,45.9,29.89,NW,317,0.0,2.0,87,0.00,,,0.00,Wunderground v.1.15,2013-09-04 10:52:00,
2013-09-04 03:58:00,49.7,46.0,29.89,NW,317,2.0,2.0,87,0.00,,,0.00,Wunderground v.1.15,2013-09-04 10:58:00,
2013-09-04 04:04:00,49.8,46.1,29.89,NW,317,1.0,2.0,87,0.00,,,0.00,Wunderground v.1.15,2013-09-04 11:04:00,
2013-09-04 04:10:00,49.7,46.0,29.89,NW,317,1.0,2.0,87,0.00,,,0.00,Wunderground v.1.15,2013-09-04 11:10:00,
2013-09-04 04:16:00,49.6,46.2,29.89,NW,317,1.0,2.0,88,0.00,,,0.00,Wunderground v.1.15,2013-09-04 11:16:00,
2013-09-04 04:22:00,49.6,46.2,29.89,NW,317,0.0,0.0,88,0.00,,,0.00,Wunderground v.1.15,2013-09-04 11:22:00,
2013-09-04 04:28:00,49.5,46.1,29.89,NW,317,0.0,1.0,88,0.00,,,0.00,Wunderground v.1.15,2013-09-04 11:28:00,
2013-09-04 04:34:00,49.4,46.0,29.89,NW,317,1.0,1.0,88,0.00,,,0.00,Wunderground v.1.15,2013-09-04 11:34:00,
2013-09-04 04:40:00,49.5,46.1,29.89,NW,317,1.0,1.0,88,0.00,,,0.00,Wunderground v.1.15,2013-09-04 11:40:00,
2013-09-04 04:46:00,49.4,46.0,29.89,NW,317,1.0,1.0,88,0.00,,,0.00,Wunderground v.1.15,2013-09-04 11:46:00,
2013-09-04 04:52:00,49.4,46.0,29.89,NW,317,0.0,1.0,88,0.00,,,0.00,Wunderground v.1.15,2013-09-04 11:52:00,
2013-09-04 04:58:00,49.3,45.6,29.89,NW,317,1.0,2.0,87,0.00,,,0.00,Wunderground v.1.15,2013-09-04 11:58:00,
2013-09-04 05:04:00,49.1,45.7,29.89,NW,317,1.0,1.0,88,0.00,,,0.00,Wunderground v.1.15,2013-09-04 12:04:00,
2013-09-04 05:10:00,49.0,45.6,29.89,NW,317,0.0,2.0,88,0.00,,,0.00,Wunderground v.1.15,2013-09-04 12:10:00,
2013-09-04 05:16:00,48.7,45.3,29.89,NW,317,0.0,0.0,88,0.00,,,0.00,Wunderground v.1.15,2013-09-04 12:16:00,
2013-09-04 05:22:00,48.6,45.5,29.89,NW,317,0.0,0.0,89,0.00,,,0.00,Wunderground v.1.15,2013-09-04 12:22:00,
2013-09-04 05:28:00,48.6,45.5,29.89,NW,317,0.0,0.0,89,0.00,,,0.00,Wunderground v.1.15,2013-09-04 12:28:00,
2013-09-04 05:34:00,48.7,45.6,29.89,NW,317,0.0,0.0,89,0.00,,,0.00,Wunderground v.1.15,2013-09-04 12:34:00,
2013-09-04 05:40:00,48.7,45.6,29.89,NW,317,0.0,0.0,89,0.00,,,0.00,Wunderground v.1.15,2013-09-04 12:40:00,
2013-09-04 05:46:00,48.8,45.7,29.89,NW,317,0.0,0.0,89,0.00,,,0.00,Wunderground v.1.15,2013-09-04 12:46:00,
2013-09-04 05:52:00,48.7,45.6,29.89,NW,317,0.0,0.0,89,0.00,,,0.00,Wunderground v.1.15,2013-09-04 12:52:00,
2013-09-04 05:58:00,48.6,45.5,29.89,NW,317,0.0,0.0,89,0.00,,,0.00,Wunderground v.1.15,2013-09-04 12:58:00,
2013-09-04 06:04:00,48.5,45.4,29.89,NW,317,0.0,0.0,89,0.00,,,0.00,Wunderground v.1.15,2013-09-04 13:04:00,
2013-09-04 06:10:00,48.2,45.1,29.90,NW,317,0.0,0.0,89,0.00,,,0.00,Wunderground v.1.15,2013-09-04 13:10:00,
2013-09-04 06:16:00,47.8,44.7,29.90,NW,317,0.0,0.0,89,0.00,,,0.00,Wunderground v.1.15,2013-09-04 13:16:00,
2013-09-04 06:22:00,47.6,44.8,29.90,NW,317,0.0,0.0,90,0.00,,,0.00,Wunderground v.1.15,2013-09-04 13:22:00,
2013-09-04 06:28:00,47.6,44.8,29.90,NW,317,0.0,0.0,90,0.00,,,0.00,Wunderground v.1.15,2013-09-04 13:28:00,
2013-09-04 06:34:00,47.4,44.3,29.90,NW,317,0.0,0.0,89,0.00,,,0.00,Wunderground v.1.15,2013-09-04 13:34:00,
2013-09-04 06:40:00,47.2,44.4,29.90,NW,317,0.0,0.0,90,0.00,,,0.00,Wunderground v.1.15,2013-09-04 13:40:00,
2013-09-04 06:46:00,47.1,44.6,29.90,NW,317,0.0,0.0,91,0.00,,,0.00,Wunderground v.1.15,2013-09-04 13:46:00,
2013-09-04 06:52:00,47.1,44.6,29.90,NW,317,0.0,0.0,91,0.00,,,0.00,Wunderground v.1.15,2013-09-04 13:52:00,
2013-09-04 06:58:00,47.4,45.2,29.91,NW,317,0.0,0.0,92,0.00,,,0.00,Wunderground v.1.15,2013-09-04 13:58:00,
2013-09-04 07:04:00,47.9,45.7,29.91,NW,317,0.0,0.0,92,0.00,,,0.00,Wunderground v.1.15,2013-09-04 14:04:00,
2013-09-04 07:10:00,48.4,45.6,29.91,NW,317,0.0,0.0,90,0.00,,,0.00,Wunderground v.1.15,2013-09-04 14:10:00,
2013-09-04 07:16:00,48.8,45.7,29.91,NW,317,0.0,0.0,89,0.00,,,0.00,Wunderground v.1.15,2013-09-04 14:16:00,
2013-09-04 07:22:00,49.1,46.0,29.91,NW,317,0.0,0.0,89,0.00,,,0.00,Wunderground v.1.15,2013-09-04 14:22:00,
2013-09-04 07:28:00,49.5,46.1,29.91,NW,317,0.0,0.0,88,0.00,,,0.00,Wunderground v.1.15,2013-09-04 14:28:00,
2013-09-04 07:34:00,50.0,46.9,29.91,NW,317,0.0,0.0,89,0.00,,,0.00,Wunderground v.1.15,2013-09-04 14:34:00,
2013-09-04 07:40:00,50.6,47.2,29.91,NW,317,0.0,0.0,88,0.00,,,0.00,Wunderground v.1.15,2013-09-04 14:40:00,
2013-09-04 07:46:00,51.2,47.8,29.91,NW,317,0.0,0.0,88,0.00,,,0.00,Wunderground v.1.15,2013-09-04 14:46:00,
2013-09-04 07:52:00,52.2,48.4,29.91,NW,317,0.0,0.0,87,0.00,,,0.00,Wunderground v.1.15,2013-09-04 14:52:00,
2013-09-04 07:58:00,53.9,49.2,29.91,NW,317,0.0,0.0,84,0.00,,,0.00,Wunderground v.1.15,2013-09-04 14:58:00,
2013-09-04 08:04:00,54.8,49.7,29.91,NW,317,0.0,0.0,83,0.00,,,0.00,Wunderground v.1.15,2013-09-04 15:04:00,
2013-09-04 08:10:00,55.5,49.4,29.91,NW,317,1.0,3.0,80,0.00,,,0.00,Wunderground v.1.15,2013-09-04 15:10:00,
2013-09-04 08:16:00,55.6,49.5,29.91,NW,317,2.0,3.0,80,0.00,,,0.00,Wunderground v.1.15,2013-09-04 15:16:00,
2013-09-04 08:22:00,56.0,49.6,29.91,NW,317,2.0,2.0,79,0.00,,,0.00,Wunderground v.1.15,2013-09-04 15:22:00,
2013-09-04 08:28:00,56.6,50.2,29.91,NW,317,1.0,2.0,79,0.00,,,0.00,Wunderground v.1.15,2013-09-04 15:28:00,
2013-09-04 08:34:00,57.8,50.6,29.91,NW,317,1.0,2.0,77,0.00,,,0.00,Wunderground v.1.15,2013-09-04 15:34:00,
2013-09-04 08:40:00,58.7,51.2,29.91,NW,317,1.0,2.0,76,0.00,,,0.00,Wunderground v.1.15,2013-09-04 15:40:00,
2013-09-04 08:46:00,59.8,52.2,29.91,NW,317,2.0,4.0,76,0.00,,,0.00,Wunderground v.1.15,2013-09-04 15:46:00,
2013-09-04 08:52:00,60.8,51.7,29.91,East,88,5.0,5.0,72,0.00,,,0.00,Wunderground v.1.15,2013-09-04 15:52:00,
2013-09-04 08:58:00,61.5,51.6,29.91,East,92,7.0,8.0,70,0.00,,,0.00,Wunderground v.1.15,2013-09-04 15:58:00,
2013-09-04 09:04:00,62.5,52.6,29.91,East,101,5.0,8.0,70,0.00,,,0.00,Wunderground v.1.15,2013-09-04 16:04:00,
2013-09-04 09:10:00,62.9,52.2,29.91,SE,126,4.0,8.0,68,0.00,,,0.00,Wunderground v.1.15,2013-09-04 16:10:00,
2013-09-04 09:16:00,63.8,53.4,29.91,ESE,111,4.0,5.0,69,0.00,,,0.00,Wunderground v.1.15,2013-09-04 16:16:00,
2013-09-04 09:22:00,64.7,52.7,29.91,ESE,121,3.0,5.0,65,0.00,,,0.00,Wunderground v.1.15,2013-09-04 16:22:00,
2013-09-04 09:28:00,65.2,52.3,29.91,ESE,107,5.0,7.0,63,0.00,,,0.00,Wunderground v.1.15,2013-09-04 16:28:00,
2013-09-04 09:34:00,65.8,51.5,29.91,SE,128,4.0,4.0,60,0.00,,,0.00,Wunderground v.1.15,2013-09-04 16:34:00,
2013-09-04 09:40:00,66.4,52.1,29.91,SE,132,3.0,7.0,60,0.00,,,0.00,Wunderground v.1.15,2013-09-04 16:40:00,
2013-09-04 09:46:00,66.7,50.0,29.90,ESE,123,4.0,6.0,55,0.00,,,0.00,Wunderground v.1.15,2013-09-04 16:46:00,
2013-09-04 09:52:00,67.6,49.9,29.90,SE,124,4.0,5.0,53,0.00,,,0.00,Wunderground v.1.15,2013-09-04 16:52:00,
2013-09-04 09:58:00,68.5,50.2,29.90,SE,140,3.0,7.0,52,0.00,,,0.00,Wunderground v.1.15,2013-09-04 16:58:00,
2013-09-04 10:04:00,69.6,49.6,29.90,SE,144,3.0,5.0,49,0.00,,,0.00,Wunderground v.1.15,2013-09-04 17:04:00,
2013-09-04 10:10:00,70.2,49.0,29.90,South,188,3.0,8.0,47,0.00,,,0.00,Wunderground v.1.15,2013-09-04 17:10:00,
2013-09-04 10:16:00,70.7,47.1,29.90,SSE,150,3.0,7.0,43,0.00,,,0.00,Wunderground v.1.15,2013-09-04 17:16:00,
2013-09-04 10:22:00,71.5,47.2,29.89,South,171,3.0,3.0,42,0.00,,,0.00,Wunderground v.1.15,2013-09-04 17:22:00,
2013-09-04 10:28:00,72.0,48.3,29.89,South,188,3.0,5.0,43,0.00,,,0.00,Wunderground v.1.15,2013-09-04 17:28:00,
2013-09-04 10:34:00,72.2,49.1,29.90,South,182,3.0,7.0,44,0.00,,,0.00,Wunderground v.1.15,2013-09-04 17:34:00,
2013-09-04 10:40:00,72.5,47.5,29.89,South,191,4.0,7.0,41,0.00,,,0.00,Wunderground v.1.15,2013-09-04 17:40:00,
2013-09-04 10:46:00,72.3,48.5,29.89,South,182,5.0,10.0,43,0.00,,,0.00,Wunderground v.1.15,2013-09-04 17:46:00,
2013-09-04 10:52:00,72.4,48.0,29.89,SSW,202,6.0,6.0,42,0.00,,,0.00,Wunderground v.1.15,2013-09-04 17:52:00,
2013-09-04 10:58:00,73.0,49.2,29.89,SSW,200,5.0,6.0,43,0.00,,,0.00,Wunderground v.1.15,2013-09-04 17:58:00,
2013-09-04 11:04:00,73.4,49.5,29.89,SSW,203,5.0,7.0,43,0.00,,,0.00,Wunderground v.1.15,2013-09-04 18:04:00,
2013-09-04 11:10:00,73.2,50.0,29.89,SSW,207,7.0,12.0,44,0.00,,,0.00,Wunderground v.1.15,2013-09-04 18:10:00,
2013-09-04 11:16:00,73.4,49.5,29.89,South,182,8.0,8.0,43,0.00,,,0.00,Wunderground v.1.15,2013-09-04 18:16:00,
2013-09-04 11:22:00,73.9,48.7,29.89,SW,215,7.0,16.0,41,0.00,,,0.00,Wunderground v.1.15,2013-09-04 18:22:00,
2013-09-04 11:28:00,74.0,48.1,29.88,SSW,205,8.0,16.0,40,0.00,,,0.00,Wunderground v.1.15,2013-09-04 18:28:00,
2013-09-04 11:34:00,74.5,48.6,29.88,SSW,205,7.0,8.0,40,0.00,,,0.00,Wunderground v.1.15,2013-09-04 18:34:00,
2013-09-04 11:40:00,74.5,47.2,29.88,SSW,202,7.0,10.0,38,0.00,,,0.00,Wunderground v.1.15,2013-09-04 18:40:00,
2013-09-04 11:46:00,75.1,49.1,29.88,SSW,213,6.0,7.0,40,0.00,,,0.00,Wunderground v.1.15,2013-09-04 18:46:00,
2013-09-04 11:52:00,75.5,49.5,29.88,SSW,194,5.0,8.0,40,0.00,,,0.00,Wunderground v.1.15,2013-09-04 18:52:00,
2013-09-04 11:58:00,76.0,48.6,29.87,South,180,5.0,8.0,38,0.00,,,0.00,Wunderground v.1.15,2013-09-04 18:58:00,
2013-09-04 12:04:00,75.9,46.3,29.87,SSE,157,5.0,9.0,35,0.00,,,0.00,Wunderground v.1.15,2013-09-04 19:04:00,
2013-09-04 12:10:00,76.0,45.6,29.87,South,172,7.0,10.0,34,0.00,,,0.00,Wunderground v.1.15,2013-09-04 19:10:00,
2013-09-04 12:16:00,76.1,45.7,29.86,SSW,203,6.0,7.0,34,0.00,,,0.00,Wunderground v.1.15,2013-09-04 19:16:00,
2013-09-04 12:22:00,76.5,44.4,29.87,WSW,257,7.0,11.0,32,0.00,,,0.00,Wunderground v.1.15,2013-09-04 19:22:00,
2013-09-04 12:28:00,76.6,43.7,29.87,SSW,200,8.0,11.0,31,0.00,,,0.00,Wunderground v.1.15,2013-09-04 19:28:00,
2013-09-04 12:34:00,76.7,40.2,29.86,SSW,198,8.0,9.0,27,0.00,,,0.00,Wunderground v.1.15,2013-09-04 19:34:00,
2013-09-04 12:40:00,77.0,42.3,29.86,WSW,238,7.0,9.0,29,0.00,,,0.00,Wunderground v.1.15,2013-09-04 19:40:00,
2013-09-04 12:46:00,77.6,39.0,29.86,SSW,203,7.0,8.0,25,0.00,,,0.00,Wunderground v.1.15,2013-09-04 19:46:00,
2013-09-04 12:52:00,78.0,40.3,29.86,SSW,196,8.0,8.0,26,0.00,,,0.00,Wunderground v.1.15,2013-09-04 19:52:00,
2013-09-04 12:58:00,78.2,39.5,29.86,SSW,196,8.0,8.0,25,0.00,,,0.00,Wunderground v.1.15,2013-09-04 19:58:00,
2013-09-04 13:04:00,78.8,38.9,29.86,West,261,7.0,12.0,24,0.00,,,0.00,Wunderground v.1.15,2013-09-04 20:04:00,
2013-09-04 13:10:00,78.9,37.9,29.85,SSW,195,8.0,12.0,23,0.00,,,0.00,Wunderground v.1.15,2013-09-04 20:10:00,
2013-09-04 13:16:00,79.1,40.2,29.85,South,178,7.0,11.0,25,0.00,,,0.00,Wunderground v.1.15,2013-09-04 20:16:00,
2013-09-04 13:22:00,79.8,42.8,29.85,SSW,192,5.0,5.0,27,0.00,,,0.00,Wunderground v.1.15,2013-09-04 20:22:00,
2013-09-04 13:28:00,80.4,38.1,29.85,WSW,257,4.0,9.0,22,0.00,,,0.00,Wunderground v.1.15,2013-09-04 20:28:00,
2013-09-04 13:34:00,80.7,40.5,29.85,SSW,201,3.0,6.0,24,0.00,,,0.00,Wunderground v.1.15,2013-09-04 20:34:00,
2013-09-04 13:40:00,80.7,40.5,29.85,WSW,248,3.0,10.0,24,0.00,,,0.00,Wunderground v.1.15,2013-09-04 20:40:00,
2013-09-04 13:46:00,80.6,39.4,29.85,SW,220,6.0,8.0,23,0.00,,,0.00,Wunderground v.1.15,2013-09-04 20:46:00,
2013-09-04 13:52:00,81.2,42.0,29.84,SW,221,4.0,4.0,25,0.00,,,0.00,Wunderground v.1.15,2013-09-04 20:52:00,
2013-09-04 13:58:00,81.4,40.0,29.84,SW,234,3.0,4.0,23,0.00,,,0.00,Wunderground v.1.15,2013-09-04 20:58:00,
2013-09-04 14:04:00,82.1,41.7,29.84,SW,224,2.0,6.0,24,0.00,,,0.00,Wunderground v.1.15,2013-09-04 21:04:00,
2013-09-04 14:10:00,81.8,42.5,29.84,SE,141,5.0,7.0,25,0.00,,,0.00,Wunderground v.1.15,2013-09-04 21:10:00,
2013-09-04 14:16:00,81.4,40.0,29.84,South,178,4.0,7.0,23,0.00,,,0.00,Wunderground v.1.15,2013-09-04 21:16:00,
2013-09-04 14:22:00,82.0,40.5,29.84,South,178,2.0,2.0,23,0.00,,,0.00,Wunderground v.1.15,2013-09-04 21:22:00,
2013-09-04 14:28:00,83.3,41.6,29.83,SSE,153,1.0,2.0,23,0.00,,,0.00,Wunderground v.1.15,2013-09-04 21:28:00,
2013-09-04 14:34:00,84.5,41.5,29.83,NW,309,1.0,3.0,22,0.00,,,0.00,Wunderground v.1.15,2013-09-04 21:34:00,
2013-09-04 14:40:00,84.5,40.3,29.83,WNW,301,2.0,4.0,21,0.00,,,0.00,Wunderground v.1.15,2013-09-04 21:40:00,
2013-09-04 14:46:00,84.7,40.4,29.83,WNW,301,2.0,2.0,21,0.00,,,0.00,Wunderground v.1.15,2013-09-04 21:46:00,
2013-09-04 14:52:00,84.9,39.3,29.83,NNW,338,1.0,1.0,20,0.00,,,0.00,Wunderground v.1.15,2013-09-04 21:52:00,
2013-09-04 14:58:00,85.1,39.5,29.82,NNW,346,1.0,2.0,20,0.00,,,0.00,Wunderground v.1.15,2013-09-04 21:58:00,
2013-09-04 15:04:00,85.0,39.4,29.82,ENE,61,2.0,2.0,20,0.00,,,0.00,Wunderground v.1.15,2013-09-04 22:04:00,
2013-09-04 15:10:00,84.3,49.5,29.83,NNW,327,3.0,7.0,30,0.00,,,0.00,Wunderground v.1.15,2013-09-04 22:10:00,
2013-09-04 15:16:00,82.5,47.9,29.82,NW,325,6.0,8.0,30,0.00,,,0.00,Wunderground v.1.15,2013-09-04 22:16:00,
2013-09-04 15:22:00,81.6,48.9,29.82,NW,310,9.0,11.0,32,0.00,,,0.00,Wunderground v.1.15,2013-09-04 22:22:00,
2013-09-04 15:28:00,80.8,49.0,29.82,West,281,9.0,11.0,33,0.00,,,0.00,Wunderground v.1.15,2013-09-04 22:28:00,
2013-09-04 15:34:00,80.7,48.9,29.82,NW,304,8.0,9.0,33,0.00,,,0.00,Wunderground v.1.15,2013-09-04 22:34:00,
2013-09-04 15:40:00,81.2,50.2,29.81,WNW,291,6.0,9.0,34,0.00,,,0.00,Wunderground v.1.15,2013-09-04 22:40:00,
2013-09-04 15:46:00,81.1,48.4,29.81,NW,316,7.0,13.0,32,0.00,,,0.00,Wunderground v.1.15,2013-09-04 22:46:00,
2013-09-04 15:52:00,80.9,49.1,29.81,WNW,299,7.0,13.0,33,0.00,,,0.00,Wunderground v.1.15,2013-09-04 22:52:00,
2013-09-04 15:58:00,80.5,48.7,29.81,NW,306,7.0,13.0,33,0.00,,,0.00,Wunderground v.1.15,2013-09-04 22:58:00,
2013-09-04 16:04:00,80.9,48.3,29.81,NW,320,8.0,8.0,32,0.00,,,0.00,Wunderground v.1.15,2013-09-04 23:04:00,
2013-09-04 16:10:00,81.2,48.5,29.81,WNW,284,7.0,8.0,32,0.00,,,0.00,Wunderground v.1.15,2013-09-04 23:10:00,
2013-09-04 16:16:00,81.2,49.4,29.80,WNW,291,7.0,8.0,33,0.00,,,0.00,Wunderground v.1.15,2013-09-04 23:16:00,
2013-09-04 16:22:00,81.2,49.4,29.80,WNW,291,7.0,7.0,33,0.00,,,0.00,Wunderground v.1.15,2013-09-04 23:22:00,
2013-09-04 16:28:00,80.8,49.8,29.80,WNW,287,7.0,10.0,34,0.00,,,0.00,Wunderground v.1.15,2013-09-04 23:28:00,
2013-09-04 16:34:00,79.7,48.8,29.80,NW,307,7.0,7.0,34,0.00,,,0.00,Wunderground v.1.15,2013-09-04 23:34:00,
2013-09-04 16:40:00,78.5,49.3,29.80,WNW,300,7.0,11.0,36,0.00,,,0.00,Wunderground v.1.15,2013-09-04 23:40:00,
2013-09-04 16:46:00,77.2,48.9,29.81,WNW,292,7.0,10.0,37,0.00,,,0.00,Wunderground v.1.15,2013-09-04 23:46:00,
2013-09-04 16:52:00,76.3,49.5,29.81,West,273,8.0,10.0,39,0.00,,,0.00,Wunderground v.1.15,2013-09-04 23:52:00,
2013-09-04 16:58:00,75.1,49.1,29.80,WNW,284,10.0,16.0,40,0.00,,,0.00,Wunderground v.1.15,2013-09-04 23:58:00,
2013-09-04 17:04:00,74.4,49.8,29.81,WNW,301,12.0,12.0,42,0.00,,,0.00,Wunderground v.1.15,2013-09-05 00:04:00,
2013-09-04 17:10:00,74.3,49.7,29.81,WNW,290,10.0,12.0,42,0.00,,,0.00,Wunderground v.1.15,2013-09-05 00:10:00,
2013-09-04 17:16:00,74.6,50.6,29.81,West,279,9.0,10.0,43,0.00,,,0.00,Wunderground v.1.15,2013-09-05 00:16:00,
2013-09-04 17:22:00,74.8,50.8,29.81,NW,313,9.0,9.0,43,0.00,,,0.00,Wunderground v.1.15,2013-09-05 00:22:00,
2013-09-04 17:28:00,74.9,51.5,29.81,West,273,8.0,9.0,44,0.00,,,0.00,Wunderground v.1.15,2013-09-05 00:28:00,
2013-09-04 17:34:00,74.5,51.2,29.81,WNW,292,7.0,8.0,44,0.00,,,0.00,Wunderground v.1.15,2013-09-05 00:34:00,
2013-09-04 17:40:00,74.3,51.0,29.81,NW,325,8.0,8.0,44,0.00,,,0.00,Wunderground v.1.15,2013-09-05 00:40:00,
2013-09-04 17:46:00,74.2,50.3,29.81,NW,304,7.0,10.0,43,0.00,,,0.00,Wunderground v.1.15,2013-09-05 00:46:00,
2013-09-04 17:52:00,73.2,50.6,29.81,WNW,285,8.0,8.0,45,0.00,,,0.00,Wunderground v.1.15,2013-09-05 00:52:00,
2013-09-04 17:58:00,72.6,50.6,29.81,NW,321,7.0,8.0,46,0.00,,,0.00,Wunderground v.1.15,2013-09-05 00:58:00,
2013-09-04 18:04:00,72.1,51.3,29.81,NW,304,7.0,7.0,48,0.00,,,0.00,Wunderground v.1.15,2013-09-05 01:04:00,
2013-09-04 18:10:00,71.7,51.0,29.81,NW,308,6.0,8.0,48,0.00,,,0.00,Wunderground v.1.15,2013-09-05 01:10:00,
2013-09-04 18:16:00,71.3,51.1,29.81,WNW,298,6.0,6.0,49,0.00,,,0.00,Wunderground v.1.15,2013-09-05 01:16:00,
2013-09-04 18:22:00,70.6,51.6,29.81,NNW,336,7.0,14.0,51,0.00,,,0.00,Wunderground v.1.15,2013-09-05 01:22:00,
2013-09-04 18:28:00,70.2,51.7,29.81,NW,309,8.0,14.0,52,0.00,,,0.00,Wunderground v.1.15,2013-09-05 01:28:00,
2013-09-04 18:34:00,69.7,51.3,29.81,WNW,284,6.0,8.0,52,0.00,,,0.00,Wunderground v.1.15,2013-09-05 01:34:00,
2013-09-04 18:40:00,69.1,51.2,29.81,WNW,296,8.0,15.0,53,0.00,,,0.00,Wunderground v.1.15,2013-09-05 01:40:00,
2013-09-04 18:46:00,68.5,51.2,29.81,NW,325,8.0,9.0,54,0.00,,,0.00,Wunderground v.1.15,2013-09-05 01:46:00,
2013-09-04 18:52:00,68.2,51.4,29.81,NW,322,6.0,10.0,55,0.00,,,0.00,Wunderground v.1.15,2013-09-05 01:52:00,
2013-09-04 18:58:00,67.9,50.6,29.81,NW,318,6.0,10.0,54,0.00,,,0.00,Wunderground v.1.15,2013-09-05 01:58:00,
2013-09-04 19:04:00,67.6,50.9,29.81,NW,315,7.0,7.0,55,0.00,,,0.00,Wunderground v.1.15,2013-09-05 02:04:00,
2013-09-04 19:10:00,67.3,51.1,29.82,WNW,302,6.0,9.0,56,0.00,,,0.00,Wunderground v.1.15,2013-09-05 02:10:00,
2013-09-04 19:16:00,66.9,50.7,29.82,NW,319,5.0,6.0,56,0.00,,,0.00,Wunderground v.1.15,2013-09-05 02:16:00,
2013-09-04 19:22:00,66.6,50.9,29.82,NW,314,6.0,8.0,57,0.00,,,0.00,Wunderground v.1.15,2013-09-05 02:22:00,
2013-09-04 19:28:00,66.2,50.5,29.82,NW,319,7.0,8.0,57,0.00,,,0.00,Wunderground v.1.15,2013-09-05 02:28:00,
2013-09-04 19:34:00,66.0,50.3,29.83,NW,306,7.0,7.0,57,0.00,,,0.00,Wunderground v.1.15,2013-09-05 02:34:00,
2013-09-04 19:40:00,65.7,50.5,29.83,WNW,302,6.0,7.0,58,0.00,,,0.00,Wunderground v.1.15,2013-09-05 02:40:00,
2013-09-04 19:46:00,65.4,50.2,29.83,NW,309,6.0,7.0,58,0.00,,,0.00,Wunderground v.1.15,2013-09-05 02:46:00,
2013-09-04 19:52:00,65.2,50.0,29.83,NW,309,6.0,6.0,58,0.00,,,0.00,Wunderground v.1.15,2013-09-05 02:52:00,
2013-09-04 19:58:00,64.9,49.8,29.83,NW,307,5.0,8.0,58,0.00,,,0.00,Wunderground v.1.15,2013-09-05 02:58:00,
2013-09-04 20:04:00,64.6,49.9,29.84,NNW,334,4.0,4.0,59,0.00,,,0.00,Wunderground v.1.15,2013-09-05 03:04:00,
2013-09-04 20:10:00,64.4,50.2,29.84,NW,314,4.0,5.0,60,0.00,,,0.00,Wunderground v.1.15,2013-09-05 03:10:00,
2013-09-04 20:16:00,64.3,50.1,29.84,WNW,288,5.0,5.0,60,0.00,,,0.00,Wunderground v.1.15,2013-09-05 03:16:00,
2013-09-04 20:22:00,64.1,49.9,29.84,NW,313,4.0,4.0,60,0.00,,,0.00,Wunderground v.1.15,2013-09-05 03:22:00,
2013-09-04 20:28:00,63.9,50.2,29.84,NW,319,4.0,4.0,61,0.00,,,0.00,Wunderground v.1.15,2013-09-05 03:28:00,
2013-09-04 20:34:00,63.8,50.5,29.84,NW,323,5.0,8.0,62,0.00,,,0.00,Wunderground v.1.15,2013-09-05 03:34:00,
2013-09-04 20:40:00,63.5,50.2,29.85,NW,325,5.0,8.0,62,0.00,,,0.00,Wunderground v.1.15,2013-09-05 03:40:00,
2013-09-04 20:46:00,63.4,50.6,29.85,NW,305,4.0,6.0,63,0.00,,,0.00,Wunderground v.1.15,2013-09-05 03:46:00,
2013-09-04 20:52:00,63.1,50.3,29.85,NW,316,3.0,3.0,63,0.00,,,0.00,Wunderground v.1.15,2013-09-05 03:52:00,
2013-09-04 20:58:00,62.8,50.4,29.85,NW,316,2.0,3.0,64,0.00,,,0.00,Wunderground v.1.15,2013-09-05 03:58:00,
2013-09-04 21:02:00,62.7,50.8,29.86,NW,316,2.0,2.0,65,0.00,,,0.00,Wunderground v.1.15,2013-09-05 04:02:00,
2013-09-04 21:06:00,62.5,51.0,29.86,NW,316,1.0,2.0,66,0.00,,,0.00,Wunderground v.1.15,2013-09-05 04:06:00,
2013-09-04 21:12:00,62.4,50.9,29.86,NW,324,2.0,5.0,66,0.00,,,0.00,Wunderground v.1.15,2013-09-05 04:12:00,
2013-09-04 21:18:00,62.2,51.1,29.86,NNW,329,4.0,5.0,67,0.00,,,0.00,Wunderground v.1.15,2013-09-05 04:18:00,
2013-09-04 21:24:00,62.2,51.1,29.86,NW,315,3.0,4.0,67,0.00,,,0.00,Wunderground v.1.15,2013-09-05 04:24:00,
2013-09-04 21:30:00,62.0,51.3,29.86,NNW,341,3.0,3.0,68,0.00,,,0.00,Wunderground v.1.15,2013-09-05 04:30:00,
2013-09-04 21:34:00,61.8,51.1,29.86,NNW,341,2.0,3.0,68,0.00,,,0.00,Wunderground v.1.15,2013-09-05 04:34:00,
2013-09-04 21:40:00,61.6,51.3,29.86,NNW,341,1.0,4.0,69,0.00,,,0.00,Wunderground v.1.15,2013-09-05 04:40:00,
2013-09-04 21:46:00,61.5,51.2,29.86,NNW,338,2.0,4.0,69,0.00,,,0.00,Wunderground v.1.15,2013-09-05 04:46:00,
2013-09-04 21:52:00,61.5,51.2,29.86,NNW,327,3.0,3.0,69,0.00,,,0.00,Wunderground v.1.15,2013-09-05 04:52:00,
2013-09-04 21:54:00,61.5,51.2,29.86,NNW,327,3.0,3.0,69,0.00,,,0.00,Wunderground v.1.15,2013-09-05 04:54:00,
2013-09-04 21:56:00,61.4,51.5,29.86,NNW,327,3.0,3.0,70,0.00,,,0.00,Wunderground v.1.15,2013-09-05 04:56:00,
2013-09-04 22:02:00,61.3,51.4,29.87,NNW,327,2.0,2.0,70,0.00,,,0.00,Wunderground v.1.15,2013-09-05 05:02:00,
2013-09-04 22:08:00,61.1,51.2,29.87,NNW,327,1.0,2.0,70,0.00,,,0.00,Wunderground v.1.15,2013-09-05 05:08:00,
2013-09-04 22:14:00,60.9,51.4,29.87,NNW,327,1.0,2.0,71,0.00,,,0.00,Wunderground v.1.15,2013-09-05 05:14:00,
2013-09-04 22:20:00,60.8,51.3,29.86,NNW,327,1.0,1.0,71,0.00,,,0.00,Wunderground v.1.15,2013-09-05 05:20:00,
2013-09-04 22:26:00,60.7,51.2,29.86,NNW,327,1.0,1.0,71,0.00,,,0.00,Wunderground v.1.15,2013-09-05 05:26:00,
2013-09-04 22:32:00,60.6,51.5,29.86,NNW,327,0.0,0.0,72,0.00,,,0.00,Wunderground v.1.15,2013-09-05 05:32:00,
2013-09-04 22:38:00,60.4,51.3,29.86,NNW,327,0.0,1.0,72,0.00,,,0.00,Wunderground v.1.15,2013-09-05 05:38:00,
2013-09-04 22:44:00,60.3,51.2,29.86,NNW,327,0.0,0.0,72,0.00,,,0.00,Wunderground v.1.15,2013-09-05 05:44:00,
2013-09-04 22:50:00,60.1,51.0,29.86,NNW,327,0.0,0.0,72,0.00,,,0.00,Wunderground v.1.15,2013-09-05 05:50:00,
2013-09-04 22:56:00,59.8,51.1,29.86,NNW,327,0.0,0.0,73,0.00,,,0.00,Wunderground v.1.15,2013-09-05 05:56:00,
2013-09-04 23:02:00,59.7,51.0,29.86,NNW,327,0.0,0.0,73,0.00,,,0.00,Wunderground v.1.15,2013-09-05 06:02:00,
2013-09-04 23:08:00,59.6,51.3,29.86,NNW,331,0.0,1.0,74,0.00,,,0.00,Wunderground v.1.15,2013-09-05 06:08:00,
2013-09-04 23:14:00,59.6,51.3,29.86,NNW,334,1.0,2.0,74,0.00,,,0.00,Wunderground v.1.15,2013-09-05 06:14:00,
2013-09-04 23:20:00,59.6,50.9,29.86,NNW,334,1.0,2.0,73,0.00,,,0.00,Wunderground v.1.15,2013-09-05 06:20:00,
2013-09-04 23:26:00,59.6,50.9,29.86,NNW,334,1.0,2.0,73,0.00,,,0.00,Wunderground v.1.15,2013-09-05 06:26:00,
2013-09-04 23:32:00,59.6,51.3,29.86,NNW,334,1.0,1.0,74,0.00,,,0.00,Wunderground v.1.15,2013-09-05 06:32:00,
2013-09-04 23:38:00,59.4,51.1,29.86,NNW,334,0.0,1.0,74,0.00,,,0.00,Wunderground v.1.15,2013-09-05 06:38:00,
2013-09-04 23:44:00,59.3,51.4,29.87,NNW,334,0.0,0.0,75,0.00,,,0.00,Wunderground v.1.15,2013-09-05 06:44:00,
2013-09-04 23:50:00,59.1,51.2,29.87,NNW,334,0.0,0.0,75,0.00,,,0.00,Wunderground v.1.15,2013-09-05 06:50:00,
2013-09-04 23:56:00,58.7,50.8,29.87,NNW,334,0.0,0.0,75,0.00,,,0.00,Wunderground v.1.15,2013-09-05 06:56:00,